sat.trackr.live / text

‹ back to catalog

STARLINK-32606

NORAD 61978 · 2024-210V

PAYLOAD ACTIVE UNKNOWN

§ Identity

Operator
Country
US
Launch date
2024-11-14
Launch site
AFETR
Launch vehicle
Mass (kg)
RCS (m²)

Purposes: comms

External: N2YO · Heavens-Above · Gunter

§ Orbital elements

Epoch: 2026-05-25T04:47:20.230080Z

Period
94.27 min
Inclination
43.0012°
Eccentricity
0.0000897
Mean motion
15.27583215 rev/d
Perigee alt
482.4 km
Apogee alt
483.7 km
Semi-major
6,861.2 km
B*
3.3019e-4
RAAN
107.5191°
Arg perigee
270.8780°
Mean anomaly
89.1969°
Rev number
8,658

§ Raw data

STARLINK-326061 61978U 24210V   26145.19953970  .00008836  00000+0  33019-3 0  99942 61978  43.0012 107.5191 0000897 270.8780  89.1969 15.27583215 86581

JSON: /api/v1/satellites/61978 · /tle

For live sub-satellite position, see the globe view (requires WebGL).

§ Visibility from observer

Set your observer location to see the next 7 days of passes ≥ 10°. The values pass through the URL so the page stays shareable.

No JS? Fill the form by hand. The geolocation button needs JavaScript.